STARLINK-11607, 63140

Orbit data source: Space-Track

STARLINK-11607, 63140 is a payload satellite owned by SpaceX/Seattle (US) in LEO that was launched on Mon, 03 Mar 2025 UTC via an FALCON 9 launch vehicle from the Air Force Eastern Test Range (AFETR). Payload-class satellites include a variety of spacecraft equipped with specific instruments for various scientific and technological missions. These include communications satellites like Starlink; space stations such as the ISS; scientific satellites like the Hubble; Earth observation satellites from companies like Planet Labs, Umbra, and HawkEye 360; GPS; miniature CubeSats for education and research; and military/defense satellites.

Loading next visibility...
Identifier
63140, 2025-043J
Orbit
LEO
Country
Flag of USUS
Related business
Manufacturer
SpaceX/Seattle
Mission
Operational Commercial Communications
Bus & Motor
STARLINK V2MD, Unknown motor
Mass
960 kg wet, ~910 kg dry
Launch date (UTC)
2025-03-03 (2 years ago)
Launch vehicle
FALCON 9
Launch site
Air Force Eastern Test Range (AFETR)
Object type
Payload
Rocket body
Debris
Shape & HBR
Box + 2 Pan, 18.1 m
Radar Cross Section
36.964 m², Large (>1 m²)

Expand to show TLE details & history
Last TLE update: 11 hours ago

TLE from 11 hours ago
0 STARLINK-11607
1 63140U 25043J   26255.86936071  .00170180  00000-0  13007-2 0  9998
2 63140  43.0009 202.1873 0002000 262.1759  97.8881 15.70878218 88913
Epoch: 2026-09-12T20:51Z
TLE epoch observation values (Epoch: 2026-09-12T20:51:52.765Z)
Latitude
-0.00006°
Longitude
-102.65479°
Altitude
356.342 km
Speed
7.697 km/s
True Right ascension
13h 28m 44s
True Declination
0° 00' 00"
Sunlit
Object was in daylight at epoch
Visualization orbit readout
Latitude
Unknown
Longitude
Unknown
Altitude
Unknown
Speed
Unknown
Apparent Right ascension
Unknown
Apparent Declination
Unknown
Sunlit
N/A
Visualization observer readout
Local Sidereal Time
00:43:33
Azimuth
Unknown
Elevation
Unknown
Doppler factor
Unknown
Orbital elements
Apogee altitude
359.715 km
Perigee altitude
357.02 km
Semi-major axis
6,736.504 km
Eccentricity
0.0002
Inclination
43.0009°
RAAN
202.1873°
Arg. of periapsis
262.1759°
True anomaly
97.9108°
Mean anomaly
97.8881°
Eccentric anomaly
97.89945°
Mean motion
3.92547 °/min
Orbital period
91.71 mins
BSTAR
0.0013007
Loading maneuver chart data...
Computing Atmospheric mass density...
Loading historical data...
Loading historical data...
Loading historical data...
Loading historical data...
Loading historical data...
Loading historical data...
Loading historical data...

Documentation

Showing up to 5 results
|